Regional Weather Roundup
Issued by NWS

Home | Current Version | Previous Version | Graphics & Text | Print | Product List | Glossary On
Versions: 1 2 3 4 5 6 7 8 9 10 11 12 13 14 15 16 17 18 19 20 21 22 23 24 25 26 27 28 29 30 31 32 33 34 35 36 37 38 39 40 41 42 43 44 45 46 47 48 49 50
986
ASUS43 KOAX 131510
RWRNE

WEATHER ROUNDUP FOR NEBRASKA
NATIONAL WEATHER SERVICE OMAHA NE
900 AM CST SAT FEB 13 2016

NOTES: SATELLITE DATA IS BEING USED TO AUGMENT CLOUD COVER ABOVE
       12000 FEET.
       "FAIR" INDICATES FEW OR NO CLOUDS BELOW 12,000 FEET WITH NO
       SIGNIFICANT WEATHER AND/OR OBSTRUCTIONS TO VISIBILITY.

  * THESE STATIONS DO NOT REPORT WEATHER SUCH AS RAIN...SNOW OR FOG.

NEZ001>004-019>022-054>056-131600-
NEBRASKA PANHANDLE

CITY           SKY/WX    TMP DP  RH WIND       PRES   REMARKS
SCOTTSBLUFF    CLOUDY    32  30  92 E8        30.06F WCI  25
ALLIANCE       CLOUDY    31  29  92 S15       30.06F FOG     WCI  20
CHADRON        CLOUDY    35  30  82 S14       30.02F WCI  26
KIMBALL        SNOW      29  29 100 SW13      30.07F VSB<1/4 WCI  19
SIDNEY         CLOUDY    29  29 100 S13       30.10F FOG     WCI  19
$$

NEZ057>060-069>072-079>082-131600-
SOUTHWEST NEBRASKA

CITY           SKY/WX    TMP DP  RH WIND       PRES   REMARKS
NORTH PLATTE   CLOUDY    22  19  89 S12       30.27S WCI  10
IMPERIAL       CLOUDY    25  24  96 S20       30.21F WCI  11
LEXINGTON      CLOUDY    21  17  84 S13       30.34F WCI   8
MCCOOK         CLOUDY    21  18  88 SE16      30.31F WCI   7
OGALLALA       CLOUDY    28  26  92 S15       30.20S FOG     WCI  17
$$

NEZ005>010-023>029-035>040-094-131600-
NORTH CENTRAL NEBRASKA

CITY           SKY/WX    TMP DP  RH WIND       PRES   REMARKS
VALENTINE      CLOUDY    23  20  88 S15       30.20F WCI  10
AINSWORTH      CLOUDY    20  15  80 S23       30.24S WCI   4
BROKEN BOW     CLOUDY    18  13  80 S17G28    30.32F WCI   3
O`NEILL        CLOUDY    15  10  81 S15       30.37F WCI   0
ORD            CLOUDY    16   8  71 SE13      30.38F WCI   2
THEDFORD       CLOUDY    23  21  93 S12G23    30.22S FOG     WCI  11
$$

NEZ041-046>049-061>064-073>077-083>087-131600-
SOUTH CENTRAL NEBRASKA

CITY           SKY/WX    TMP DP  RH WIND       PRES   REMARKS
GRAND ISLAND   CLOUDY    14   7  73 SE14      30.44F WCI  -1
AURORA         CLOUDY    15   8  73 SE12      30.45F WCI   2
HASTINGS       CLOUDY    17   9  70 SE12      30.42F WCI   4
HEBRON         CLOUDY    19   8  62 SE10      30.49S WCI   7
HOLDREGE       CLOUDY    19  15  86 SE15      30.37F WCI   5
KEARNEY *      CLOUDY    18  10  73 SE15      30.39F WCI   3
YORK           CLOUDY    16  10  79 SE12      30.47F WCI   3
$$

NEZ011>018-030>034-042>045-131600-
NORTHEAST NEBRASKA

CITY           SKY/WX    TMP DP  RH WIND       PRES   REMARKS
NORFOLK        CLOUDY    11   2  67 SE10      30.48R WCI  -3
ALBION         CLOUDY    13   7  76 SE12      30.45S WCI  -1
BLAIR          CLOUDY    10   3  73 E8        30.54F WCI  -2
COLUMBUS *     CLOUDY    12  -4  48 SE9       30.50F WCI   0
FREMONT        CLOUDY    11   1  63 E9        30.55S WCI  -1
TEKAMAH        CLOUDY     8   1  73 SE12      30.59S WCI  -7
WAYNE          CLOUDY     8   1  72 SE9       30.53R WCI  -6
$$

NEZ050>053-065>068-078-088>093-131600-
SOUTHEAST NEBRASKA

CITY           SKY/WX    TMP DP  RH WIND       PRES   REMARKS
LINCOLN        CLOUDY    15   3  59 E10       30.56S WCI   2
OMAHA EPPLEY   CLOUDY    11   2  67 E8        30.60F WCI  -1
BEATRICE       CLOUDY    16   1  51 SE9       30.53S WCI   5
FALLS CITY     CLOUDY    16   2  54 E9        30.58F WCI   4
NEBRASKA CITY  CLOUDY    14   4  63 E7        30.57F WCI   4
PLATTSMOUTH    CLOUDY    12   3  66 E10       30.56F WCI  -1
$$

NEZ044-045-051>053-067-131600-
OMAHA AREA

CITY           SKY/WX    TMP DP  RH WIND       PRES   REMARKS
OMAHA EPPLEY   CLOUDY    11   2  67 E8        30.60F WCI  -1
BLAIR          CLOUDY    10   3  73 E8        30.54F WCI  -2
FREMONT        CLOUDY    11   1  63 E9        30.55S WCI  -1
MILLARD        CLOUDY    12   2  64 SE8       30.58F WCI   1
OFFUTT AFB     CLOUDY    12   2  65 E8        30.58F WCI   0
PLATTSMOUTH    CLOUDY    12   3  66 E10       30.56F WCI  -1
WAHOO          CLOUDY    13   5  70 SE10      30.55R WCI   0
$$




USA.gov is the U.S. government's official web portal to all federal, state and local government web resources and services.